Welcome to the New NWS' Forecast!
Most changes are behind the scenes, but click here for differences you might notice.
Latest weather observations around

Corsicana, Campbell Field-Corsicana Municipal Airport (KCRS)

Using English Units (Switch to International System of Units)
Date/ Time (CDT) Wind (mph) Vis. (mi) Weather Sky Cond. Temp (°F) Rel. Humidity Wind Chill (°F) Heat Index (°F) Pressure Precip. (in)
Air Dwpt 6 hour Altimeter (inHg) Sea level (inHg) 1 hr 3 hr 6 hr
Max Min
Jul 19 13:53 6 10 Clear CLR 100 68     36%   106 29.89 29.87      
Jul 19 12:53 SW 13 10 Clear CLR 99 68     37%   105 29.91 29.89      
Jul 19 11:53 SW 14 10 Clear CLR 95 69     43%   101 29.93 29.91      
Jul 19 10:53 SW 9 10 Clear CLR 92 73     54%   101 29.93 29.91      
Jul 19 09:53 SSW 13 10 Clear CLR 89 73     59%   97 29.94 29.92      
Jul 19 08:53 SSW 14 10 Clear CLR 85 74     70%   92 29.94 29.91      
Jul 19 07:53 S 9 10 Clear CLR 82 74     77%   88 29.94 29.91      
Jul 19 06:53 SSW 9 10 Clear CLR 80 74     82%   85 29.92 29.9      
Jul 19 05:53 SSW 9 10 Clear CLR 81 74     79%   86 29.91 29.89      
Jul 19 04:53 SSW 11 10 Clear CLR 82 74     77%   88 29.91 29.88      
Jul 19 03:53 SSW 11 10 Clear CLR 83 73     72%   89 29.9 29.88      
Jul 19 02:53 SSW 8 10 Clear CLR 83 71     67%   88 29.9 29.87      
Jul 19 01:53 S 9 10 Clear CLR 84 69     61%   88 29.89 29.87      
Jul 19 00:53 S 14 10 Clear CLR 87 69     55%   91 29.9 29.87      
Jul 18 23:53 S 11 10 Clear CLR 88 69     54%   92 29.9 29.88      
Jul 18 22:53 S 13 10 Clear CLR 88 68     52%   92 29.9 29.88      
Jul 18 21:53 SSE 11 10 Clear CLR 90 66     45%   93 29.89 29.87      
Jul 18 20:53 SSE 9 10 Clear CLR 92 65     41%   94 29.88 29.86      
Jul 18 19:53 SSE 8 10 Clear CLR 96 65     36%   99 29.87 29.85      
Jul 18 18:53 SE 11 10 Clear CLR 100 64     31%   103 29.87 29.84      
Jul 18 17:53 SSE 10 10 Clear CLR 100 64     31%   103 29.87 29.85      
Jul 18 16:53 SE 9 10 Clear CLR 102 64     29%   105 29.88 29.86      
Jul 18 15:53 SSE 11 10 Clear CLR 102 65     30%   106 29.91 29.88      
Jul 18 14:53 SW 10 10 Clear CLR 101 66     32%   106 29.92 29.9      
Jul 18 13:53 7 10 Clear CLR 99 66     34%   103 29.95 29.93      
Jul 18 12:53 SSW 9 10 Clear CLR 96 70     43%   103 29.97 29.95      
Jul 18 11:53 WSW 13 10 Clear CLR 94 70     46%   100 29.99 29.96      
Jul 18 10:53 SW 11 10 Clear CLR 91 73     56%   100 29.99 29.97      
Jul 18 09:53 SSW 14 10 Clear CLR 87 73     63%   95 30 29.98      
Jul 18 08:53 SSW 15 10 Clear CLR 83 73     72%   89 30.01 29.99      
Jul 18 07:53 SSW 8 10 Clear CLR 79 72     79%   82 30.01 29.99      
Jul 18 06:53 SSW 7 10 Clear   78 70     76%   79 30.01 29.98      
Jul 18 05:53 SSW 10 10 Clear CLR 79 70     74%   82 29.99 29.96      
Jul 18 04:53 SW 11 10 Clear CLR 81 71     72%   85 29.98 29.96      
Jul 18 03:53 SSW 11 10 Clear CLR 81 71     72%   85 29.97 29.95      
Jul 18 02:53 S 8 10 Clear CLR 80 71     74%   84 29.98 29.95      
Jul 18 01:53 S 8 10 Clear CLR 82 71     69%   86 29.98 29.96      
Jul 18 00:53 S 10 10 Clear CLR 83 70     65%   87 29.98 29.96      
Jul 17 23:53 S 8 10 Clear CLR 83 66     57%   85 29.98 29.96      
Jul 17 22:53 S 9 10 Clear CLR 86 65     50%   88 29.98 29.96      
Jul 17 21:53 S 8 9 Clear CLR 87 64     46%   88 29.96 29.94      
Jul 17 20:53 SSE 8 8 Clear CLR 89 61     39%   89 29.95 29.93      
Jul 17 19:53 SSE 10 7 Clear CLR 94 63     36%   95 29.95 29.93      
Jul 17 18:53 SSW 6 7 Clear CLR 100 55     23%   99 29.94 29.92      
Jul 17 17:53 W 6 7 Clear CLR 101 54     21%   99 29.95 29.93      
Jul 17 16:53 W 7 7 Clear CLR 102 53     20%   100 29.96 29.94      
Jul 17 15:53 SW 6 7 Clear CLR 101 55     22%   100 29.98 29.96      
Jul 17 14:53 SW 10 7 Clear CLR 100 57     24%   99 30 29.98      
Jul 17 13:53 S 11 7 Clear CLR 98 60     29%   98 30.03 30.01      
Jul 17 12:53 SW 11 7 Clear CLR 96 62     33%   97 30.06 30.04      
Jul 17 11:53 SW 7 8 Clear CLR 93 65     40%   95 30.07 30.05      
Jul 17 10:53 SW 13 8 Clear CLR 89 68     50%   93 30.07 30.06      
Jul 17 09:53 SW 15 8 Clear CLR 85 70     61%   89 30.08 30.06      
Jul 17 08:53 SW 10 8 Clear CLR 81 71     72%   85 30.07 30.06      
Jul 17 07:53 SSW 11 7 Clear CLR 77 71     82%   78 30.06 30.04      
Jul 17 06:53 S 8 7 Partly Cloudy SCT044 74 69     85%   75 30.05 30.03      
Jul 17 05:53 S 7 9 Partly Cloudy SCT046 76 69     79%   77 30.03 30.01      
Jul 17 04:53 S 7 9 Mostly Cloudy BKN047 78 69     74%   79 30.02 30      
Jul 17 03:53 S 8 9 Clear   80 68     67%   83 30.02 29.99      
Jul 17 02:53 SSW 9 9 Mostly Cloudy BKN047 81 68     65%   84 30.02 30      
Jul 17 01:53 S 8 9 Mostly Cloudy BKN047 81 69     67%   84 30.02 29.99      
Jul 17 00:53 S 7 9 Mostly Cloudy BKN048 81 70     69%   84 30.02 29.99      
Jul 16 23:53 S 7 9 Partly Cloudy SCT048 83 70     65%   87 30.01 29.99      
Jul 16 22:53 S 8 9 Mostly Clear FEW050 85 69     59%   89 30 29.98      
Jul 16 21:53 S 7 9 Mostly Clear FEW050 87 69     55%   91 29.99 29.97      
Jul 16 20:53 SSE 10 9 Mostly Clear FEW050 90 68     49%   94 29.96 29.94      
Jul 16 19:53 S 9 7 Mostly Clear FEW046 94 64     37%   96 29.94 29.92      
Jul 16 18:53 S 9 7 Clear CLR 97 65     35%   100 29.94 29.92      
Jul 16 17:53 SSW 9 7 Clear CLR 99 61     29%   100 29.95 29.93      
Jul 16 16:53 SW 10 7 Clear CLR 99 63     31%   101 29.95 29.93      
Jul 16 15:53 SSW 7 7 Clear CLR 98 66     35%   102 29.98 29.96      
Jul 16 14:53 SSE 5 7 Clear CLR 97 67     38%   101 30.01 29.99      
May 15 13:53 SSE 8 10 Clear CLR 87 64     46%   88 29.98 29.96      
May 14 11:08 S 11 10 Mostly Cloudy BKN032 80 69     69%   83 30.03        
May 13 22:53 SSE 9 10 Clear CLR 79 69     72%   80   29.95      
May 13 12:53 SSE 14 10 Cloudy FEW038 OVC048 83 68     61%   86 30.05 30.03      
May 12 07:53 S 11 7 Cloudy FEW014 BKN025 OVC043 73 69     87%   74 30 29.98      
May 12 02:53 S 13 9 Mostly Clear FEW016 72 67     84%   73 29.95 29.93      
May 11 22:53 SSE 11 10 Clear CLR 75 63     66%   75 29.94 29.92      
May 11 20:53 SSE 9 10 Clear CLR 76 63     64%   76 29.89 29.87      
May 11 11:53 S 16 10 Partly Cloudy SCT040 81 65     58%   83   29.98      
May 11 07:53 S 10 8 Cloudy FEW011 OVC024 70 67     90%     29.99 29.98      
Notice The following observation data may not be complete
Jun 11 16:53     Clear            %     29.91        
Notice The following observation data may not be complete
Jun 11 03:53     Clear            %     29.93        
Notice The following observation data may not be complete
Jun 10 21:53     Clear            %     29.89        
Notice The following observation data may not be complete
Jun 09 16:53     Clear            %     29.9        
Jun 06 02:53 NNW 6 10 Clear CLR 73 71     94%   74 29.82 29.8